FW9555 Weather Reports


time (UTC)temp
F
wind
direction
speed
knots
gust
knots
rain 1hr
in
rain 24hr
in
rain mn
in
humidity
%
barometer
mb
20260906072112 70 73 0.0 1.7 0.00 0.00 0.00 99 1014.3
20260906071608 70 74 0.0 0.0 0.00 0.00 0.00 99 1014.1
20260906071103 70 74 0.0 0.0 0.00 0.00 0.00 99 1014.2
20260906070600 70 74 0.0 0.0 0.00 0.00 0.00 99 1014.2
20260906070055 71 74 0.0 0.0 0.00 0.00 0.00 99 1014.4
20260906065554 70 0 0.0 0.9 0.00 0.00 0.00 99 1014.7
20260906065050 70 5 0.9 0.9 0.00 0.00 0.00 99 1014.5
20260906064546 70 15 0.0 0.0 0.00 0.00 0.00 99 1014.8
20260906064040 70 15 0.0 0.0 0.00 0.00 0.00 99 1014.6
20260906063536 70 80 0.0 2.6 0.00 0.00 0.00 99 1014.7
20260906063031 70 0 0.0 0.0 0.00 0.00 0.00 99 1014.7
20260906062521 70 90 0.0 0.0 0.00 0.00 0.00 99 1014.8
20260906062015 70 90 0.0 0.0 0.00 0.00 0.00 99 1014.9
20260906061512 70 15 0.0 0.0 0.00 0.00 0.00 99 1015.1
20260906061011 70 0 0.0 0.0 0.00 0.00 0.00 99 1014.8
20260906060508 70 0 0.0 0.0 0.00 0.00 0.00 99 1014.8
20260906060004 70 0 0.0 0.0 0.00 0.00 0.00 99 1015.1
20260906055459 70 0 0.0 0.0 0.00 0.00 0.00 99 1014.9
20260906054955 70 294 0.0 0.9 0.00 0.00 0.00 99 1015.2
20260906054455 70 0 0.0 0.0 0.00 0.00 0.00 99 1015.1
20260906053950 70 23 0.0 0.0 0.00 0.00 0.00 99 1015.3
20260906053447 70 23 0.0 0.9 0.00 0.00 0.00 99 1015.3
20260906052942 70 81 0.0 0.0 0.00 0.00 0.00 99 1015.2
20260906052438 71 81 0.0 0.0 0.00 0.00 0.00 99 1015.2
20260906051935 71 81 0.0 1.7 0.00 0.00 0.00 99 1015.2
20260906051430 70 337 0.0 0.0 0.00 0.00 0.00 99 1015.5
20260906050925 70 23 0.9 0.9 0.00 0.00 0.00 99 1015.4
20260906050425 70 40 0.0 0.0 0.00 0.00 0.00 99 1015.7
20260906045924 70 90 0.0 0.9 0.00 0.00 0.00 99 1015.7
20260906045423 70 352 0.0 0.0 0.00 0.00 0.00 99 1015.7
20260906044919 70 352 0.0 0.0 0.00 0.00 0.00 99 1015.7
20260906044414 70 352 0.0 0.0 0.00 0.00 0.00 99 1015.9
20260906043909 71 352 0.0 0.0 0.00 0.00 0.00 99 1016.0
20260906043406 70 352 0.0 0.0 0.00 0.00 0.00 99 1015.9
20260906042901 70 35 0.0 0.0 0.00 0.00 0.00 99 1015.8
20260906042359 70 35 0.0 0.0 0.00 0.00 0.00 98 1015.7
20260906041855 71 35 0.0 0.0 0.00 0.00 0.00 99 1015.5
20260906041351 70 35 0.0 0.9 0.00 0.00 0.00 98 1015.7
20260906040845 70 90 0.0 1.7 0.00 0.00 0.00 98 1015.8
20260906040340 70 78 0.0 0.0 0.00 0.00 0.00 98 1016.0
20260906035836 71 78 0.0 0.0 0.00 0.00 0.00 98 1016.0
20260906035331 71 78 0.0 0.0 0.00 0.00 0.00 98 1015.9
20260906034826 71 78 0.0 0.0 0.00 0.00 0.00 98 1016.0
20260906034321 71 78 0.0 0.0 0.00 0.00 0.00 98 1016.0
20260906033817 71 78 0.0 0.0 0.00 0.00 0.00 97 1016.1
20260906033316 71 78 0.0 0.0 0.00 0.00 0.00 97 1016.1
20260906032812 71 78 0.0 0.0 0.00 0.00 0.00 97 1015.9
20260906032308 71 60 0.0 0.9 0.00 0.00 0.00 97 1015.9
20260906031803 71 262 0.0 0.9 0.00 0.00 0.00 97 1016.0
20260906031259 71 270 0.0 0.0 0.00 0.00 0.00 96 1016.1
20260906030758 71 270 0.0 0.0 0.00 0.00 0.00 96 1016.2
20260906030254 71 0 0.0 0.0 0.00 0.00 0.00 96 1016.2
20260906025753 71 0 0.0 0.0 0.00 0.00 0.00 96 1015.8
20260906025247 71 0 0.0 0.0 0.00 0.00 0.00 96 1016.0
20260906024746 72 0 0.0 0.0 0.00 0.00 0.00 96 1015.7
20260906024245 72 270 0.0 0.0 0.00 0.00 0.00 95 1015.8
20260906023741 72 270 0.0 0.0 0.00 0.00 0.00 95 1015.8
20260906023236 72 270 0.0 0.0 0.00 0.00 0.00 95 1015.5
20260906022732 72 0 0.0 0.0 0.00 0.00 0.00 94 1015.7
20260906022227 72 0 0.0 0.0 0.00 0.00 0.00 94 1015.4
20260906021723 72 0 0.0 0.0 0.00 0.00 0.00 94 1015.4
20260906021222 72 0 0.0 0.0 0.00 0.00 0.00 94 1015.5
20260906020717 72 0 0.0 0.0 0.00 0.00 0.00 94 1015.5
20260906020211 72 0 0.0 0.0 0.00 0.00 0.00 94 1015.5
20260906015706 72 0 0.0 0.0 0.00 0.00 0.00 94 1015.4
20260906015204 72 0 0.0 0.0 0.00 0.00 0.00 94 1015.2
20260906014659 73 0 0.0 0.0 0.00 0.00 0.00 94 1015.2
20260906014155 73 352 0.0 0.0 0.00 0.00 0.00 94 1015.4
20260906013651 72 352 0.0 0.0 0.00 0.00 0.00 94 1015.3
20260906013146 72 294 0.0 0.0 0.00 0.00 0.00 94 1015.4
20260906012645 72 294 0.0 0.0 0.00 0.00 0.00 93 1015.2
20260906012140 73 294 0.0 0.0 0.00 0.00 0.00 93 1015.2
20260906011636 73 294 0.0 0.0 0.00 0.00 0.00 93 1015.0
20260906011131 73 294 0.0 0.0 0.00 0.00 0.00 92 1015.1
20260906010626 73 294 0.0 0.0 0.00 0.00 0.00 92 1014.9
20260906010122 73 294 0.0 0.0 0.00 0.00 0.00 91 1014.9
20260906005621 74 294 0.0 0.0 0.00 0.00 0.00 91 1014.8
20260906005121 74 294 0.0 0.0 0.00 0.00 0.00 90 1014.9
20260906004620 74 294 0.0 0.0 0.00 0.00 0.00 90 1014.8
20260906004115 74 294 0.0 0.0 0.00 0.00 0.00 89 1014.9
20260906003610 75 294 0.0 0.0 0.00 0.00 0.00 89 1014.9
20260906003106 75 294 0.0 0.0 0.00 0.00 0.00 89 1014.7
20260906002601 75 294 0.0 0.0 0.00 0.00 0.00 88 1014.9
20260906002055 75 294 0.0 0.0 0.00 0.00 0.00 88 1014.9
20260906001551 76 294 0.0 0.0 0.00 0.00 0.00 88 1014.8
20260906001045 76 294 0.0 0.0 0.00 0.00 0.00 87 1014.8
20260906000541 76 286 0.9 0.9 0.00 0.00 0.00 86 1014.7
20260906000035 77 294 0.0 0.0 0.00 0.00 0.00 85 1014.5
20260905235530 77 294 0.0 0.0 0.00 0.00 0.00 84 1014.6
20260905235025 77 294 0.0 0.0 0.00 0.00 0.00 83 1014.4
20260905234521 78 294 0.0 0.0 0.00 0.00 0.00 82 1014.2
20260905234021 78 294 0.0 0.0 0.00 0.00 0.00 81 1014.3
20260905233515 79 294 0.0 0.0 0.00 0.00 0.00 80 1013.8
20260905233015 80 294 0.0 0.0 0.00 0.00 0.00 79 1014.0
20260905232511 80 294 0.0 0.0 0.00 0.00 0.00 78 1014.1
20260905232006 81 294 0.0 0.0 0.00 0.00 0.00 77 1013.9
20260905231501 82 294 0.0 0.0 0.00 0.00 0.00 75 1013.9
20260905230958 82 294 0.0 0.9 0.00 0.00 0.00 73 1013.9
20260905230456 83 270 0.0 0.0 0.00 0.00 0.00 71 1014.0
20260905225954 84 270 0.0 0.0 0.00 0.00 0.00 69 1014.2
20260905225450 84 276 0.0 1.7 0.00 0.00 0.00 67 1014.4
20260905224945 87 282 1.7 1.7 0.00 0.00 0.00 66 1014.4
20260905224440 86 270 0.0 0.0 0.00 0.00 0.00 69 1014.2
20260905223939 85 277 0.0 2.6 0.00 0.00 0.00 65 1014.1
20260905223437 85 345 0.0 1.7 0.00 0.00 0.00 66 1013.9
20260905222932 85 279 0.9 1.7 0.00 0.00 0.00 67 1014.0
20260905222432 86 334 0.9 1.7 0.00 0.00 0.00 67 1013.9
20260905221927 86 286 0.0 1.7 0.00 0.00 0.00 65 1014.1
20260905221424 87 270 0.0 0.0 0.00 0.00 0.00 67 1014.1
20260905220920 84 270 0.0 0.0 0.00 0.00 0.00 68 1014.3
20260905220416 83 328 0.0 0.0 0.00 0.00 0.00 69 1014.1
20260905215915 82 289 1.7 1.7 0.00 0.00 0.00 67 1014.1
20260905215410 83 12 0.0 2.6 0.00 0.00 0.00 67 1014.1
20260905214907 83 300 0.9 1.7 0.00 0.00 0.00 67 1014.2
20260905214402 84 319 1.7 1.7 0.00 0.00 0.00 68 1014.5
20260905213857 82 262 0.9 0.9 0.00 0.00 0.00 73 1014.5
20260905213353 81 325 0.9 2.6 0.00 0.00 0.00 72 1014.7
20260905212848 82 266 2.6 2.6 0.00 0.00 0.00 75 1014.9
20260905212342 81 0 0.0 1.7 0.00 0.00 0.00 76 1014.9
20260905211842 81 60 0.0 0.0 0.00 0.00 0.00 77 1015.0
20260905211338 81 60 0.0 0.0 0.00 0.00 0.00 77 1014.9
20260905210834 80 352 0.0 1.7 0.00 0.00 0.00 76 1014.9
20260905210333 80 12 3.5 4.3 0.00 0.00 0.00 76 1015.1
20260905205832 80 251 1.7 2.6 0.00 0.00 0.00 77 1014.8
20260905205327 80 192 0.0 2.6 0.00 0.00 0.00 78 1014.8
20260905204827 80 61 1.7 2.6 0.00 0.00 0.00 77 1015.0
20260905204323 80 32 1.7 2.6 0.00 0.00 0.00 80 1015.2
20260905203821 80 352 0.0 0.0 0.00 0.00 0.00 82 1014.9
20260905203318 79 16 1.7 1.7 0.00 0.00 0.00 81 1014.6
20260905202813 79 345 0.0 0.9 0.00 0.00 0.00 81 1015.0
20260905202308 79 340 0.0 0.0 0.00 0.00 0.00 81 1014.8
20260905201803 79 320 1.7 2.6 0.00 0.00 0.00 80 1014.8
20260905201259 79 35 0.0 0.0 0.00 0.00 0.00 80 1014.7
20260905200753 79 23 0.0 0.0 0.00 0.00 0.00 79 1015.1
20260905200249 79 23 0.0 1.7 0.00 0.00 0.00 79 1014.9
20260905195746 79 345 0.0 3.5 0.00 0.00 0.00 78 1015.3
20260905195242 80 84 0.0 1.7 0.00 0.00 0.00 77 1015.5
20260905194738 80 0 0.0 0.0 0.00 0.00 0.00 77 1015.5
20260905194236 80 311 0.0 3.5 0.00 0.00 0.00 76 1015.2
20260905193731 80 315 0.0 1.7 0.00 0.00 0.00 76 1014.8
20260905193226 80 320 0.0 0.0 0.00 0.00 0.00 76 1014.9
20260905192721 80 320 0.0 0.0 0.00 0.00 0.00 76 1014.9
20260905192218 80 320 0.0 1.7 0.00 0.00 0.00 74 1014.9
20260905191717 81 279 0.0 0.9 0.00 0.00 0.00 74 1014.9
20260905191215 82 0 0.9 0.9 0.00 0.00 0.00 73 1014.5
20260905190714 82 340 0.9 1.7 0.00 0.00 0.00 73 1014.2
20260905190213 82 300 0.0 1.7 0.00 0.00 0.00 73 1014.0
20260905185712 83 325 0.0 2.6 0.00 0.00 0.00 71 1014.4
20260905185207 83 200 0.0 2.6 0.00 0.00 0.00 71 1014.3
20260905184701 84 343 4.3 4.3 0.00 0.00 0.00 68 1014.8
20260905184200 85 311 0.0 5.2 0.00 0.00 0.00 66 1015.0
20260905183654 89 355 1.7 7.8 0.00 0.00 0.00 58 1015.7
20260905183149 95 301 2.6 4.3 0.00 0.00 0.00 53 1015.0
20260905182649 95 290 3.5 3.5 0.00 0.00 0.00 56 1014.5
20260905182149 95 336 1.7 2.6 0.00 0.00 0.00 54 1014.4
20260905181644 95 337 0.0 1.7 0.00 0.00 0.00 58 1014.4
20260905181143 96 172 0.0 2.6 0.00 0.00 0.00 54 1014.7
20260905180638 96 26 1.7 1.7 0.00 0.00 0.00 51 1014.8
20260905180133 96 311 1.7 4.3 0.00 0.00 0.00 55 1014.7
20260905175632 95 258 2.6 4.3 0.00 0.00 0.00 57 1015.0
20260905175127 94 14 0.9 1.7 0.00 0.00 0.00 59 1015.2
20260905174623 94 342 1.7 3.5 0.00 0.00 0.00 60 1015.3
20260905174119 95 294 0.0 2.6 0.00 0.00 0.00 56 1015.5
20260905173615 94 15 0.0 1.7 0.00 0.00 0.00 59 1015.2
20260905173110 94 195 1.7 4.3 0.00 0.00 0.00 58 1015.7
20260905172609 95 281 4.3 6.1 0.00 0.00 0.00 60 1015.5
20260905172104 95 63 0.0 1.7 0.00 0.00 0.00 57 1015.8
20260905171600 95 339 3.5 4.3 0.00 0.00 0.00 57 1016.0
20260905171056 95 20 0.9 4.3 0.00 0.00 0.00 58 1015.8
20260905170553 95 282 0.0 4.3 0.00 0.00 0.00 62 1015.9
20260905170048 96 0 1.7 1.7 0.00 0.00 0.00 58 1016.2
20260905165543 95 0 1.7 1.7 0.00 0.00 0.00 57 1016.3
20260905165037 95 324 1.7 4.3 0.00 0.00 0.00 58 1016.1
20260905164532 95 327 0.0 2.6 0.00 0.00 0.00 57 1016.2
20260905164027 95 0 0.9 1.7 0.00 0.00 0.00 61 1016.4
20260905163523 96 294 0.0 0.9 0.00 0.00 0.00 63 1016.4
20260905163019 96 352 0.0 0.0 0.00 0.00 0.00 63 1016.4
20260905162514 95 352 0.0 0.0 0.00 0.00 0.00 64 1016.8
20260905162009 93 325 0.9 2.6 0.00 0.00 0.00 66 1016.6
20260905161509 93 285 0.9 1.7 0.00 0.00 0.00 62 1016.6
20260905161006 94 41 0.0 1.7 0.00 0.00 0.00 62 1016.8
20260905160500 94 0 0.0 1.7 0.00 0.00 0.00 72 1016.8
20260905155959 93 111 0.0 2.6 0.00 0.00 0.00 68 1016.7
20260905155455 92 60 0.0 1.7 0.00 0.00 0.00 68 1016.6
20260905154953 92 8 0.0 1.7 0.00 0.00 0.00 66 1016.9
20260905154448 92 342 1.7 3.5 0.00 0.00 0.00 68 1016.9
20260905153944 93 0 0.0 0.0 0.00 0.00 0.00 73 1016.9
20260905153440 92 192 0.9 1.7 0.00 0.00 0.00 71 1016.9
20260905152939 91 8 0.0 1.7 0.00 0.00 0.00 68 1016.9
20260905152439 90 7 2.6 2.6 0.00 0.00 0.00 71 1016.7
20260905151934 89 0 0.9 1.7 0.00 0.00 0.00 74 1017.0
20260905151430 90 23 0.9 0.9 0.00 0.00 0.00 73 1016.7
20260905150925 89 180 0.0 0.0 0.00 0.00 0.00 76 1016.9
20260905150425 87 264 0.0 1.7 0.00 0.00 0.00 77 1017.0
20260905145921 86 345 0.0 2.6 0.00 0.00 0.00 77 1017.1
20260905145416 86 32 0.0 1.7 0.00 0.00 0.00 80 1017.1
20260905144915 86 327 0.0 1.7 0.00 0.00 0.00 83 1017.0
20260905144411 85 281 2.6 2.6 0.00 0.00 0.00 85 1016.9
20260905143910 84 288 0.0 2.6 0.00 0.00 0.00 84 1016.8
20260905143404 84 270 0.0 1.7 0.00 0.00 0.00 85 1016.9
20260905142904 83 0 0.0 1.7 0.00 0.00 0.00 86 1017.1
20260905142403 84 337 0.0 1.7 0.00 0.00 0.00 87 1017.1
20260905141858 82 326 0.0 1.7 0.00 0.00 0.00 88 1017.2
20260905141353 82 303 1.7 1.7 0.00 0.00 0.00 88 1017.1
20260905140850 82 274 2.6 3.5 0.00 0.00 0.00 88 1017.2
20260905140350 81 306 0.0 2.6 0.00 0.00 0.00 89 1017.3
20260905135848 80 301 1.7 1.7 0.00 0.00 0.00 91 1017.4
20260905135344 80 188 0.0 0.9 0.00 0.00 0.00 92 1017.5
20260905134839 80 270 0.0 0.9 0.00 0.00 0.00 92 1017.3
20260905134338 79 345 0.9 2.6 0.00 0.00 0.00 92 1017.2
20260905133833 79 319 1.7 1.7 0.00 0.00 0.00 95 1017.1
20260905133328 78 270 0.0 0.9 0.00 0.00 0.00 97 1017.4
20260905132827 78 278 0.0 0.9 0.00 0.00 0.00 97 1017.3
20260905132323 78 261 0.0 0.0 0.00 0.00 0.00 98 1017.2
20260905131823 77 261 0.0 1.7 0.00 0.00 0.00 98 1017.4
20260905131318 77 286 0.0 1.7 0.00 0.00 0.00 99 1017.5
20260905130814 76 90 0.0 1.7 0.00 0.00 0.00 99 1017.6
20260905130312 76 11 0.0 1.7 0.00 0.00 0.00 99 1017.1
20260905125808 75 6 0.0 0.0 0.00 0.00 0.00 99 1017.4
20260905125305 75 8 0.0 0.0 0.00 0.00 0.00 99 1017.3
20260905124759 75 0 0.0 1.7 0.00 0.00 0.00 99 1017.5
20260905124254 75 294 0.0 1.7 0.00 0.00 0.00 99 1017.3
20260905123749 75 294 0.0 1.7 0.00 0.00 0.00 99 1017.3
20260905123247 75 304 0.0 1.7 0.00 0.00 0.00 99 1017.4
20260905122746 75 334 1.7 1.7 0.00 0.00 0.00 99 1017.5
20260905122240 74 0 0.0 0.0 0.00 0.00 0.00 99 1017.4
20260905121735 74 345 0.0 0.9 0.00 0.00 0.00 99 1017.5
20260905121232 74 300 0.0 0.0 0.00 0.00 0.00 99 1017.8
20260905120730 74 300 0.0 0.0 0.00 0.00 0.00 99 1017.4
20260905120225 74 286 0.0 0.9 0.00 0.00 0.00 99 1017.5
20260905115720 73 346 0.0 0.0 0.00 0.00 0.00 99 1017.5
20260905115220 73 270 0.0 0.0 0.00 0.00 0.00 99 1017.4
20260905114715 73 90 0.0 0.0 0.00 0.00 0.00 99 1017.3
20260905114213 72 90 0.0 0.0 0.00 0.00 0.00 99 1017.3
20260905113713 72 90 0.0 0.0 0.00 0.00 0.00 99 1017.1
20260905113209 72 90 0.0 0.0 0.00 0.00 0.00 99 1016.9
20260905112708 72 90 0.0 0.0 0.00 0.00 0.00 99 1017.1
20260905112204 72 270 0.0 0.0 0.00 0.00 0.00 99 1016.8
20260905111703 72 270 0.0 0.0 0.00 0.00 0.00 99 1016.9
20260905111203 72 270 0.0 0.0 0.00 0.00 0.00 99 1016.7
20260905110702 72 270 0.0 0.0 0.00 0.00 0.00 99 1016.6
20260905110157 72 270 0.0 0.0 0.00 0.00 0.00 99 1016.7
20260905105653 73 270 0.0 0.0 0.00 0.00 0.00 99 1016.8
20260905105151 73 270 0.0 0.0 0.00 0.00 0.00 99 1016.4
20260905104646 73 270 0.0 0.9 0.00 0.00 0.00 99 1016.5
20260905104142 73 270 0.0 0.0 0.00 0.00 0.00 99 1016.3
20260905103637 72 270 0.0 0.0 0.00 0.00 0.00 99 1016.4
20260905103133 72 270 0.0 0.0 0.00 0.00 0.00 99 1016.2
20260905102629 72 270 0.0 0.0 0.00 0.00 0.00 99 1016.1
20260905102125 73 270 0.0 0.0 0.00 0.00 0.00 99 1016.1
20260905101623 73 270 0.0 0.0 0.00 0.00 0.00 99 1016.3
20260905101122 73 0 0.0 0.0 0.00 0.00 0.00 99 1016.2
20260905100618 73 0 0.9 0.9 0.00 0.00 0.00 99 1016.3
20260905100113 73 306 0.0 0.0 0.00 0.00 0.00 99 1016.2
20260905095607 73 306 0.0 0.0 0.00 0.00 0.00 99 1016.1
20260905095102 73 306 0.0 0.0 0.00 0.00 0.00 99 1016.3
20260905094558 73 352 0.0 0.0 0.00 0.00 0.00 99 1016.3
20260905094057 73 353 0.0 0.9 0.00 0.00 0.00 99 1016.1
20260905093556 73 0 0.0 0.0 0.00 0.00 0.00 99 1016.4
20260905093053 73 0 0.0 0.0 0.00 0.00 0.00 99 1016.0
20260905092553 73 0 0.0 0.0 0.00 0.00 0.00 99 1016.2
20260905092049 73 0 0.0 0.0 0.00 0.00 0.00 99 1016.4
20260905091548 73 0 0.0 0.0 0.00 0.00 0.00 99 1016.0
20260905091043 73 0 0.0 0.0 0.00 0.00 0.00 99 1016.4
20260905090542 73 0 0.0 0.0 0.00 0.00 0.00 99 1016.2
20260905090038 73 0 0.0 0.0 0.00 0.00 0.00 99 1016.2
20260905085536 73 48 0.0 0.0 0.00 0.00 0.00 99 1016.3
20260905085032 73 48 0.0 0.0 0.00 0.00 0.00 99 1016.3
20260905084526 74 0 0.0 0.0 0.00 0.00 0.00 99 1016.2
20260905084021 74 0 0.0 0.0 0.00 0.00 0.00 99 1016.3
20260905083516 74 23 0.0 0.0 0.00 0.00 0.00 99 1016.2
20260905083013 74 0 0.0 0.9 0.00 0.00 0.00 99 1016.3
20260905082508 74 346 0.0 0.0 0.00 0.00 0.00 99 1016.3
20260905082003 74 346 0.0 0.0 0.00 0.00 0.00 99 1016.6
20260905081457 73 0 0.0 0.0 0.00 0.00 0.00 99 1016.6
20260905080957 74 0 0.0 0.0 0.00 0.00 0.00 99 1016.5
20260905080452 74 0 0.0 0.0 0.00 0.00 0.00 99 1016.6
20260905075950 74 0 0.0 0.0 0.00 0.00 0.00 99 1016.8
20260905075445 74 0 0.0 0.0 0.00 0.00 0.00 99 1016.7
20260905074944 74 0 0.0 0.0 0.00 0.00 0.00 99 1016.6
20260905074440 74 0 0.0 0.0 0.00 0.00 0.00 99 1016.7
20260905073935 74 345 0.0 0.0 0.00 0.00 0.00 99 1016.9
20260905073430 74 352 0.0 0.0 0.00 0.00 0.00 99 1017.0
20260905072926 74 352 0.0 0.0 0.00 0.00 0.00 99 1016.8